This demonstration page uses our WeatherBlox Daily Observations layout. Learn more.

Left ArrowRight Arrow

39.01783, -85.05884

Hourly Observations for March 27, 2017

Temp ( °F °C ) Dew Point ( °F °C ) Humidity (%) Winds ( mph kmh ) Pressure ( in mb ) Visibility ( mi km ) Precip ( " mm )
12:52 am 00:52 Mostly Clear 54 12.2 52 11.1 93 93 SW 6 9 29.96 1015 10 16 0.00 0.00
1:52 am 01:52 Mostly Cloudy with Mist and Fog 50 10 50 10 100 100 SSW 5 7 29.95 1014 6 10 0.00 0.00
2:52 am 02:52 Partly Cloudy with Mist and Fog 49 9.4 49 9.4 100 100 SSW 6 9 29.95 1014 6 10 0.00 0.00
3:52 am 03:52 Partly Cloudy 49 9.4 48 8.9 97 97 S 3 6 29.95 1014 7 11 0.00 0.00
4:52 am 04:52 Mostly Clear 50 10 49 9.4 96 96 Calm 29.95 1014 9 14 0.00 0.00
5:52 am 05:52 Partly Cloudy with Patchy Fog 45 7.2 45 7.2 100 100 SSW 3 6 29.97 1015 4 6 0.00 0.00
6:52 am 06:52 Mostly Clear with Mist and Fog 48 8.9 46 7.8 93 93 Calm 29.96 1015 4 6 0.00 0.00
7:05 am 07:05 Partly Cloudy with Patchy Fog 45 7.2 45 7.2 100 100 Calm 30.00 1016 4 6 0.00 0.00
7:17 am 07:17 Mostly Cloudy with Patchy Fog 44 6.7 43 6.1 96 96 Calm 30.00 1016 4 6 0.00 0.00
7:52 am 07:52 Partly Cloudy with Mist and Fog 44 6.7 44 6.7 100 100 Calm 29.98 1015 6 10 0.00 0.00
8:52 am 08:52 Partly Cloudy with Mist and Fog 50 10 50 10 100 100 Calm 29.98 1015 6 10 0.00 0.00
9:52 am 09:52 Partly Cloudy 58 14.4 51 10.6 78 78 NE 3 6 29.98 1015 10 16 0.00 0.00
10:52 am 10:52 Mostly Cloudy 60 15.6 50 10 70 70 VRB 3 6 29.99 1016 10 16 0.00 0.00
11:52 am 11:52 Cloudy 60 15.6 50 10 70 70 ESE 8 13 29.98 1015 10 16 0.00 0.00
12:52 pm 12:52 Cloudy 61 16.1 51 10.6 70 70 SE 8 13 29.97 1015 10 16 0.00 0.00
1:52 pm 13:52 Cloudy 62 16.7 52 11.1 70 70 SE 3 6 29.94 1014 10 16 0.00 0.03
2:52 pm 14:52 Mostly Cloudy 65 18.3 54 12.2 68 68 ESE 9 15 29.89 1012 10 16 0.00 0.00
3:52 pm 15:52 Mostly Cloudy 66 18.9 55 12.8 68 68 S 9 15 29.87 1012 10 16 0.00 0.00
4:52 pm 16:52 Mostly Cloudy 68 20 55 12.8 63 63 SSE 8 13 29.85 1011 10 16 0.00 0.00
5:52 pm 17:52 Mostly Cloudy 67 19.4 55 12.8 66 66 SSE 8 13 29.83 1010 10 16 0.00 0.00
6:52 pm 18:52 Cloudy 67 19.4 56 13.3 68 68 SE 9 15 29.81 1010 10 16 0.00 0.00
7:40 pm 19:40 Cloudy with Nearby Thunderstorms 64 18 57 14 78 78 SE 12 19 29.80 1009 10 16 0.00 0.00
7:52 pm 19:52 Cloudy with Nearby Thunderstorms 65 18.3 57 13.9 76 76 S 17 28 29.81 1010 10 16 0.00 0.03
8:14 pm 20:14 Cloudy with Light Rain 63 17 57 14 83 83 SSW 8 13 29.80 1009 9 14 0.00 0.00
8:52 pm 20:52 Cloudy with Light Rain 60 15.6 56 13.3 86 86 SSW 9 15 29.85 1011 9 14 0.04 1.02
9:52 pm 21:52 Cloudy with Light Rain 58 14.4 57 13.9 97 97 SSE 8 13 29.83 1010 7 11 0.04 1.02
10:52 pm 22:52 Cloudy 57 13.9 56 13.3 96 96 S 5 7 29.84 1011 10 16 0.01 0.25
11:52 pm 23:52 Cloudy 57 13.9 56 13.3 96 96 S 3 6 29.83 1010 8 13 0.00 0.00

Powered by AerisWeather